sat.trackr.live / text

‹ back to catalog

EUTELSAT KONNECT

NORAD 45027 · 2020-005B

PAYLOAD ACTIVE UNKNOWN

§ Identity

Operator
Country
EUTE
Launch date
2020-01-16
Launch site
FRGUI
Launch vehicle
Mass (kg)
RCS (m²)

Purposes: comms

External: N2YO · Heavens-Above · Gunter

§ Orbital elements

Epoch: 2026-09-19T06:44:26.619360Z

Period
1,436.05 min
Inclination
0.0631°
Eccentricity
0.0002014
Mean motion
1.00275166 rev/d
Perigee alt
35,777.2 km
Apogee alt
35,794.1 km
Semi-major
42,163.8 km
B*
0.0000e+0
RAAN
98.8541°
Arg perigee
104.8364°
Mean anomaly
262.8225°
Rev number
2,528

§ Raw data

EUTELSAT KONNECT1 45027U 20005B   26262.28086365  .00000046  00000+0  00000+0 0  99992 45027   0.0631  98.8541 0002014 104.8364 262.8225  1.00275166 25280

JSON: /api/v1/satellites/45027 · /tle

For live sub-satellite position, see the globe view (requires WebGL).

§ Visibility from observer

Set your observer location to see the next 7 days of passes ≥ 10°. The values pass through the URL so the page stays shareable.

No JS? Fill the form by hand. The geolocation button needs JavaScript.